User: anonymous   Login
Location: Unspecified
(0.0000°N, 0.0000°E)
Time: 10:15:28
(UTC+00:00)
Language:

STUDSAT - Orbit

View from above orbital plane
View from above orbital plane
View from above satellite
View from above satellite

Ground track
Ground track

The orbit data is extracted from the following two-line orbital elements,

1 36796U 10035B   19081.90619594 +.00000223 +00000-0 +30971-4 0  9993
2 36796 098.0930 214.7492 0013584 041.6149 318.6097 14.87576004470925
Epoch (UTC): 22 March 2019 21:44:55
Eccentricity: 0.0013584
inclination: 98.0930°
perigee height: 596 km
apogee height: 615 km
right ascension of ascending node: 214.7492°
argument of perigee: 41.6149°
revolutions per day: 14.87576004
mean anomaly at epoch: 318.6097°
orbit number at epoch: 47092

The dashed part of the orbit path shows where the satellite is in the earth's shadow,  

DLR